Regional Weather Roundup
Issued by NWS State College, PA

Home | Current Version | Previous Version | Text Only | Print | Product List | Glossary On
Versions: 1 2 3 4 5 6 7 8 9 10 11 12 13 14 15 16 17 18 19 20 21 22 23 24 25 26 27 28 29 30 31 32 33 34 35 36 37 38 39 40 41 42 43 44 45 46 47 48 49 50
486
ASUS41 KCTP 241610
RWRCTP

REGIONAL WEATHER ROUNDUP
NATIONAL WEATHER SERVICE STATE COLLEGE PA
1200 PM EDT WED AUG 24 2016

Note: "fair" indicates few or no clouds below 12,000 feet with no
significant weather and/or obstructions to visibility.

* = STATION THAT DOES NOT REPORT PRECIPITATION /E.G. RAIN...SNOW...ETC/
    THUNDER OR FOG.

PAZ002>004-007>009-013>016-020>023-029>032-241700-
WESTERN PENNSYLVANIA

CITY           SKY/WX    TMP DP  RH WIND       PRES   REMARKS
ERIE           SUNNY     82  62  50 S10G22    30.18F
MEADVILLE      SUNNY     77  59  53 S13       30.22F
FRANKLIN*      MOSUNNY   79  61  53 S14       30.24F
NEW CASTLE     FAIR      77  62  59 VRB6      30.23F
BEAVER COUNTY  SUNNY     79  64  61 SW5       30.24F
BUTLER*        NOT AVBL
PITTSBURGH INT CLOUDY    79  62  56 S6        30.24F
PITTSBURGH     MOSUNNY   79  64  60 SE8       30.24F
INDIANA*       SUNNY     79  66  65 SW6G13    30.28F
LATROBE        SUNNY     81  66  61 W14       30.26F
WASHINGTON CO* MOSUNNY   77  64  65 S3        30.26F
$$

PAZ004>006-010>012-017>019-024>028-033>037-041-042-045-046-049>053-241700-
CENTRAL PENNSYLVANIA

CITY           SKY/WX    TMP DP  RH WIND       PRES   REMARKS
BRADFORD       SUNNY     75  62  64 S8        30.26F
DUBOIS         SUNNY     78  61  55 S8        30.25F
CLEARFIELD     SUNNY     80  65  59 SW5       30.26F
JOHNSTOWN      SUNNY     77  64  64 SW9G18    30.30F
ALTOONA        SUNNY     79  65  62 S5        30.29F
STATE COLLEGE  MOSUNNY   77  66  69 SW6       30.27F
WILLIAMSPORT   SUNNY     78  63  59 E3        30.24F
SELINSGROVE    SUNNY     79  68  69 SE3       30.27F
FT INDIANTOWN  SUNNY     78  64  63 S9        30.27F
CAPITAL CITY   SUNNY     81  63  54 CALM      30.26F
HARRISBURG     MOSUNNY   81  65  58 VRB3      30.26F
YORK           SUNNY     81  63  54 SW7       30.27F
$$

PAZ038>040-043-044-047-048-054-055-060>062-067>071-241700-
EASTERN PENNSYLVANIA

CITY           SKY/WX    TMP DP  RH WIND       PRES   REMARKS
SCRANTON       SUNNY     80  63  55 W9        30.27F
MOUNT POCONO   MOSUNNY   75  59  57 CALM      30.32F
ALLENTOWN      SUNNY     81  63  54 SW6       30.27F
QUAKERTOWN*    MOSUNNY   81  61  50 CALM      30.29F
READING        MOSUNNY   82  63  52 SW9       30.26F
LANCASTER      SUNNY     80  65  59 W7        30.27F
COATESVILLE    SUNNY     79  64  61 VRB3      30.31S
POTTSTOWN      SUNNY     79  61  53 S6        30.29F
BLUE BELL      SUNNY     79  63  57 W3        30.28S
DOYLESTOWN     SUNNY     82  62  50 VRB3      30.27F
WILLOW GROVE   NOT AVBL
NORTH PHILA    MOSUNNY   82  61  48 VRB3      30.29F
PHILADELPHIA   MOSUNNY   81  60  48 W7        30.28F
$$




USA.gov is the U.S. government's official web portal to all federal, state and local government web resources and services.